User: anonymous   Login
Location: Fort Wayne
(41.1310°N, 85.1290°W)
Time: 06:54:13
(UTC-04:00)
Language:

SL-08 RB Rocket - Orbit

View from above orbital plane
View from above orbital plane
View from above satellite
View from above satellite

Ground track
Ground track

The orbit data is extracted from the following two-line orbital elements,

1 26387U 00033D   17142.81442337 +.00000142 +00000-0 +32829-4 0  9994
2 26387 097.9723 207.7481 0027699 059.5456 057.6883 14.68272536161842
Epoch (UTC): 22 May 2017 19:32:46
Eccentricity: 0.0027699
inclination: 97.9723°
perigee height: 647 km
apogee height: 686 km
right ascension of ascending node: 207.7481°
argument of perigee: 59.5456°
revolutions per day: 14.68272536
mean anomaly at epoch: 57.6883°
orbit number at epoch: 16184

The dashed part of the orbit path shows where the satellite is in the earth's shadow,  

DLR